Weather History for Santa Ana, CA

Change the Weather History Date:

Friday, June 14, 2013

  Actual Average Record
Temperature  
Mean Temperature 67 °F 67 °F  
Max Temperature 72 °F 73 °F 83 °F (2006)
Min Temperature 62 °F 61 °F 59 °F (2001)
Degree Days  
Heating Degree Days 0 0  
Month to date heating degree days 0 0  
Since 1 June heating degree days 0 0  
Since 1 July heating degree days 1096 1245  
Cooling Degree Days 2 2  
Month to date cooling degree days 33 28  
Year to date cooling degree days 113 95  
Since 1 June cooling degree days 33 28  
Growing Degree Days 16 (Base 50)    
Moisture  
Dew Point 55 °F    
Average Humidity 71    
Maximum Humidity 84    
Minimum Humidity 57    
Precipitation  
Precipitation 0.00 in 0.01 in 0.00 in (2014)
Month to date precipitation 0.00 0.06  
Year to date precipitation 1.96 8.94  
Since 1 July precipitation 4.98 13.31  
Snow  
Snow 0.00 in - - ()
Month to date snowfall 0.0  
Year to date snowfall 0.0  
Since 1 July snowfall 0.0  
Snow Depth 0.00 in    
Sea Level Pressure  
Sea Level Pressure 29.90 in    
Wind  
Wind Speed 7 mph (South)    
Max Wind Speed 17 mph    
Max Gust Speed 21 mph    
Visibility 9 miles    
Events      
T = Trace of Precipitation, MM = Missing Value Source: NWS Daily Summary

Daily Weather History Graph

Daily Weather History Graph

Search for Another Location

Airport:

Trip Planner

Search our weather history database for the weather conditions in past years. The results will help you decide how hot, cold, wet, or windy it might be!

Date:

Astronomy

Jun. 14, 2013 Rise Set
Actual Time 5:40 AM PDT 8:03 PM PDT
Civil Twilight 5:11 AM PDT 8:32 PM PDT
Nautical Twilight 4:35 AM PDT 9:07 PM PDT
Astronomical Twilight 3:56 AM PDT 9:46 PM PDT
Moon 11:06 AM PDT (6/14) 11:57 PM PDT (6/14)
Length of Visible Light 15h 20m
Length of Day
14h 22m
Waxing Crescent, 31% of the Moon is Illuminated
Jun 14
Waxing Crescent
Jun 16
First Quarter
Jun 23
Full
Jun 29
Last Quarter
Jul 8
New

Hourly Weather History & Observations

Time (PDT) Temp. Dew Point Humidity Pressure Visibility Wind Dir Wind Speed Gust Speed Precip Events Conditions
12:01 AM 62.6 °F 57.2 °F 82% 29.92 in 10.0 mi South 4.6 mph - N/A   Mostly Cloudy
12:53 AM 63.0 °F 57.0 °F 81% 29.91 in 9.0 mi SSE 4.6 mph - N/A   Overcast
1:53 AM 63.0 °F 57.0 °F 81% 29.90 in 9.0 mi Variable 4.6 mph - N/A   Overcast
2:53 AM 62.1 °F 57.0 °F 84% 29.90 in 9.0 mi SE 3.5 mph - N/A   Overcast
3:53 AM 62.1 °F 57.0 °F 84% 29.90 in 9.0 mi SE 3.5 mph - N/A   Overcast
4:21 AM 62.6 °F 55.4 °F 77% 29.90 in 10.0 mi East 4.6 mph - N/A   Overcast
4:53 AM 63.0 °F 55.9 °F 78% 29.90 in 10.0 mi SW 3.5 mph - N/A   Overcast
5:53 AM 63.0 °F 55.9 °F 78% 29.91 in 10.0 mi East 4.6 mph - N/A   Overcast
6:53 AM 63.0 °F 55.9 °F 78% 29.91 in 10.0 mi Calm Calm - N/A   Overcast
7:08 AM 62.6 °F 55.4 °F 77% 29.91 in 10.0 mi South 3.5 mph - N/A   Overcast
7:53 AM 64.0 °F 55.9 °F 75% 29.92 in 10.0 mi ENE 3.5 mph - N/A   Mostly Cloudy
8:53 AM 64.0 °F 55.9 °F 75% 29.93 in 10.0 mi South 5.8 mph - N/A   Mostly Cloudy
9:53 AM 66.0 °F 55.9 °F 70% 29.92 in 10.0 mi SSW 6.9 mph - N/A   Overcast
10:53 AM 66.9 °F 55.9 °F 68% 29.92 in 10.0 mi WSW 8.1 mph - N/A   Mostly Cloudy
11:31 AM 66.2 °F 55.4 °F 68% 29.91 in 10.0 mi WSW 8.1 mph - N/A   Scattered Clouds
11:53 AM 69.1 °F 57.0 °F 65% 29.91 in 10.0 mi SW 8.1 mph - N/A   Scattered Clouds
12:53 PM 70.0 °F 55.9 °F 61% 29.91 in 10.0 mi SW 9.2 mph - N/A   Partly Cloudy
1:53 PM 71.1 °F 55.9 °F 59% 29.89 in 10.0 mi SSW 10.4 mph 19.6 mph N/A   Partly Cloudy
2:53 PM 70.0 °F 55.0 °F 59% 29.88 in 10.0 mi SW 16.1 mph - N/A   Partly Cloudy
3:53 PM 69.1 °F 55.0 °F 61% 29.87 in 10.0 mi SW 12.7 mph - N/A   Partly Cloudy
4:53 PM 68.0 °F 55.0 °F 63% 29.86 in 10.0 mi SSW 13.8 mph - N/A   Partly Cloudy
5:53 PM 66.0 °F 54.0 °F 65% 29.86 in 10.0 mi SSW 13.8 mph - N/A   Partly Cloudy
6:53 PM 64.0 °F 54.0 °F 70% 29.87 in 8.0 mi SSW 10.4 mph - N/A   Partly Cloudy
7:53 PM 62.1 °F 54.0 °F 75% 29.87 in 8.0 mi SSW 9.2 mph - N/A   Partly Cloudy
8:53 PM 61.0 °F 53.1 °F 75% 29.88 in 8.0 mi SSW 4.6 mph - N/A   Partly Cloudy
9:53 PM 61.0 °F 54.0 °F 78% 29.90 in 7.0 mi SSW 4.6 mph - N/A   Scattered Clouds
10:30 PM 60.8 °F 53.6 °F 77% 29.91 in 7.0 mi SSE 6.9 mph - N/A   Mostly Cloudy
10:53 PM 61.0 °F 54.0 °F 78% 29.91 in 7.0 mi SSE 5.8 mph - N/A   Overcast
11:53 PM 61.0 °F 54.0 °F 78% 29.91 in 8.0 mi South 4.6 mph - N/A   Overcast